Tracking 20040 objects as of 19-Nov-2019
Live streaming from Space Station
objects crossing your sky now

FLOCK 2B 2


FLOCK 2B 2 is no longer on orbit
FLOCK 2B 2 is classified as:


NORAD ID: 40951
Int'l Code: 1998-067HC
Perigee: N/A
Apogee: N/A
Inclination: N/A
Period: N/A
Semi major axis: N/A
RCS: N/A
Launch date: November 20, 1998
Source: United States (US)
Launch site: TYURATAM MISSILE AND SPACE COMPLEX (TTMTR)
Decay date: 2016-10-02
aabbcc
Your satellite tracking list
Your tracking list is empty




NASA's NSSDC Master Catalog

Two Line Element Set (TLE):
1 40951U 98067HC  16276.76414476  .53405637  13754-4  16405-3 0  9996
2 40951  51.6321 187.0225 0066889 337.6369  23.7900 16.51800510 57121
Source of the keplerian elements: AFSPC